Vertical_Velocity
2 0 3 -2 4 -3 5 1 -1 6 -0 -8 2 -5 -2 3 -0 -0 -1 -3 -2 -1 -0 1 0 -1 0 1 1 2 0 2 -0 -0 -0 -0 0 -0
2 2 3 -2 2 -1 3 0 2 3 4 5 -1 -1 -7 3 1 4 -1 -1 2 -2 -4 0 0 0 2 3 2 1 2 1 -0 0 -1 1 -1 -0
2 1 2 -1 3 1 -1 -1 -0 -2 -3 8 2 -3 -5 6 -7 5 4 -0 1 -3 -1 -1 -2 -1 -1 -0 -2 1 1 1 0 -1 -2 -1 -1 -0
1 -1 2 -3 5 2 -1 1 4 -10 -3 4 11 6 -4 5 -1 5 1 3 -3 -2 -1 -4 -1 -1 -2 -2 0 -0 0 -0 -1 -1 -1 -2 -0 0
2 3 -3 1 -3 3 2 -4 -4 6 0 -6 0 5 10 1 -1 3 -4 -1 3 -3 -2 -1 -0 -0 -3 1 1 -1 1 0 -0 -2 -3 -2 2 2
3 0 -1 -4 1 -2 1 -2 1 4 2 -4 2 1 1 3 -0 0 2 -1 -3 5 -5 1 -2 -1 -2 -2 -3 -3 -2 -1 -2 -2 0 -0 2 2
-6 -3 -5 -6 -4 1 9 6 2 -2 -4 12 11 3 3 -3 -0 0 -2 -1 -0 1 -1 0 3 -1 -2 -1 -0 -0 1 1 0 -2 -2 -2 -0 2
6 12 10 -0 2 6 1 0 3 2 3 3 1 2 0 1 -0 -1 -1 -1 2 -4 3 -0 -2 -2 -0 1 -0 -1 0 0 -1 -2 -1 -1 -1 3
-0 10 2 3 9 3 1 4 -3 1 2 -2 1 -7 1 -3 -1 -0 -3 1 2 -2 1 1 0 -2 -1 -1 1 -2 -0 2 -0 -0 0 -2 -2 3
-0 -1 -2 -7 -8 -9 -13 -8 -11 -7 -3 -2 -4 -5 -6 -0 2 -1 -4 0 5 2 2 1 -1 -5 0 1 0 -1 2 1 0 -1 -0 -0 -0 1
-2 -4 -3 -2 2 1 5 -1 -1 -1 -5 -4 -2 0 -2 7 1 -0 -3 1 5 0 -2 2 -0 -1 -2 -0 -2 0 -0 1 0 -2 -2 -3 -4 -0
-1 -6 0 4 -3 -1 1 -1 -1 -1 -1 -2 0 -2 -1 3 -2 2 4 1 1 4 -6 2 0 -1 -1 -3 -4 -1 -1 -2 -0 0 -2 -5 -8 -5
0 -0 -3 0 1 0 2 0 2 1 -0 -1 3 -0 -2 4 1 3 1 1 1 -0 -1 -1 -1 0 -1 4 -7 0 4 -4 -3 -3 -5 -7 -8 -11
-2 0 -3 -0 2 -4 -2 -1 -1 0 2 -4 -4 0 1 1 1 2 2 0 1 -0 1 -1 -1 -1 3 3 -1 -4 -1 -4 1 1 0 -3 -8 -1
-2 -4 -5 4 -0 2 -4 -2 6 2 -2 -6 -2 1 2 5 2 0 -0 -1 -1 0 -1 -0 -1 -1 -0 2 6 -5 16 -4 -6 0 3 0 -5 0
-3 -1 2 5 3 -1 -2 5 -4 -1 -4 -1 5 4 3 1 0 -0 -0 1 -0 -0 0 1 -1 -2 -1 2 -1 3 -2 1 3 -3 9 1 -11 -7
-1 2 4 6 4 -1 4 1 4 2 4 2 1 1 1 -1 -0 -1 0 -0 -0 1 0 -0 -1 -1 -2 -1 -7 -1 0 -2 -5 -2 4 5 -14 -6
0 4 3 1 2 -2 -1 1 -1 0 1 -1 -0 -0 -0 -1 -1 -0 -1 -1 -0 -0 -1 -0 -1 -0 -0 -6 -0 6 -5 2 -0 -3 -3 -2 8 -11
-1 -1 -1 -1 -2 -2 -1 -1 -1 -1 -4 -1 0 -0 0 -1 -1 -0 -0 -0 -0 0 -1 -0 2 -0 1 1 -14 5 10 -3 3 -2 -1 -7 3 -2
-1 -5 -4 -3 -3 -3 -1 -0 -1 -2 -1 -0 -0 0 1 1 1 3 1 -0 0 -0 2 3 1 0 1 3 3 -15 -2 1 -2 0 8 3 -3 -14
0 -3 -4 -4 -2 -2 0 -1 0 1 1 0 -0 1 0 0 1 -1 -1 1 2 2 -0 0 1 1 1 1 2 2 -10 -8 -6 -3 2 5 3 10
-0 -3 -1 -1 -1 0 -3 -1 -1 1 -1 -1 -0 1 3 1 -0 0 1 2 -0 -1 0 1 0 -1 -0 0 -1 3 4 -1 -8 -13 -6 -16 -17 -6
-3 -3 -2 1 -1 -2 -2 -2 -4 -3 -2 -1 -1 2 0 1 1 2 -1 -1 1 0 1 4 1 -0 1 -0 0 0 -1 -1 8 15 -12 -10 -7 -13
Height
5781 5784 5787 5789 5793 5793 5794 5795 5794 5794 5793 5790 5791 5790 5787 5786 5783 5779 5777 5774 5772 5768 5765 5761 5756 5751 5746 5740 5736 5731 5727 5722 5718 5713 5708 5703 5698 5693
5772 5774 5778 5780 5781 5781 5782 5781 5781 5782 5781 5779 5779 5778 5774 5774 5772 5769 5766 5764 5762 5758 5752 5747 5744 5738 5733 5729 5724 5719 5714 5709 5705 5700 5695 5690 5686 5680
5760 5763 5766 5767 5768 5768 5769 5769 5769 5768 5767 5768 5768 5767 5762 5762 5760 5758 5756 5753 5749 5745 5739 5736 5730 5724 5720 5715 5710 5706 5701 5697 5693 5689 5683 5678 5673 5668
5748 5749 5752 5753 5755 5756 5756 5757 5757 5755 5754 5754 5755 5756 5753 5751 5749 5747 5744 5742 5736 5731 5727 5723 5717 5712 5708 5703 5698 5693 5689 5686 5681 5677 5671 5667 5661 5657
5733 5735 5738 5739 5742 5744 5744 5743 5741 5743 5741 5740 5739 5741 5740 5740 5737 5734 5730 5728 5723 5718 5714 5709 5706 5700 5695 5691 5686 5683 5679 5676 5671 5665 5660 5656 5650 5644
5719 5722 5724 5725 5729 5729 5729 5729 5727 5729 5729 5728 5730 5729 5728 5728 5725 5721 5718 5713 5710 5706 5702 5697 5692 5688 5683 5679 5676 5672 5669 5665 5659 5654 5649 5644 5639 5633
5704 5708 5711 5712 5715 5715 5716 5715 5715 5715 5715 5720 5719 5717 5716 5715 5711 5708 5705 5700 5696 5693 5688 5683 5680 5675 5672 5668 5664 5660 5657 5653 5648 5643 5637 5632 5627 5620
5694 5695 5699 5698 5700 5701 5703 5704 5704 5704 5706 5708 5707 5706 5703 5701 5697 5695 5691 5687 5684 5679 5674 5670 5667 5664 5661 5657 5653 5649 5646 5642 5636 5631 5625 5620 5613 5607
5678 5683 5685 5687 5688 5688 5690 5692 5693 5693 5693 5694 5694 5693 5692 5688 5687 5682 5678 5675 5672 5665 5661 5657 5655 5652 5650 5646 5642 5638 5635 5630 5624 5618 5613 5606 5600 5593
5665 5668 5671 5672 5673 5674 5677 5676 5677 5679 5680 5681 5682 5682 5679 5675 5672 5668 5666 5662 5658 5653 5650 5648 5644 5641 5639 5635 5631 5627 5622 5617 5612 5605 5599 5593 5586 5579
5658 5660 5661 5662 5663 5663 5664 5665 5666 5667 5669 5670 5670 5668 5664 5660 5658 5655 5653 5650 5646 5642 5640 5637 5634 5630 5627 5623 5619 5615 5610 5605 5599 5592 5585 5578 5572 5565
5647 5650 5649 5651 5652 5652 5654 5654 5655 5657 5658 5657 5655 5654 5651 5648 5646 5644 5642 5638 5635 5632 5630 5627 5623 5620 5616 5610 5606 5603 5598 5591 5584 5578 5571 5564 5557 5551
5633 5636 5637 5639 5642 5642 5642 5643 5643 5644 5643 5642 5642 5640 5638 5637 5635 5633 5630 5627 5624 5621 5618 5616 5612 5609 5604 5599 5594 5590 5585 5578 5571 5564 5556 5548 5541 5533
5623 5624 5626 5627 5629 5630 5630 5631 5631 5632 5631 5630 5628 5627 5626 5625 5623 5621 5618 5616 5613 5610 5607 5605 5602 5598 5593 5589 5583 5577 5571 5565 5559 5552 5543 5533 5524 5515
5613 5614 5615 5616 5618 5618 5619 5619 5619 5620 5619 5618 5617 5615 5614 5613 5612 5610 5608 5605 5603 5600 5596 5593 5590 5586 5583 5579 5573 5567 5562 5551 5546 5540 5531 5520 5512 5503
5601 5603 5606 5606 5606 5607 5608 5610 5608 5607 5607 5605 5603 5602 5602 5602 5601 5599 5597 5594 5591 5588 5585 5582 5578 5575 5571 5566 5562 5555 5549 5543 5534 5527 5518 5504 5493 5485
5589 5592 5593 5594 5594 5595 5596 5595 5594 5594 5594 5593 5592 5592 5591 5590 5589 5587 5585 5583 5580 5577 5574 5570 5567 5563 5558 5553 5547 5543 5536 5528 5521 5514 5506 5493 5475 5469
5578 5580 5580 5581 5582 5582 5582 5582 5582 5583 5583 5582 5581 5581 5580 5579 5578 5576 5574 5571 5569 5565 5562 5558 5555 5550 5544 5539 5535 5529 5522 5515 5506 5498 5489 5481 5468 5452
5566 5567 5568 5569 5570 5571 5572 5571 5571 5570 5570 5569 5569 5569 5568 5567 5566 5564 5562 5559 5556 5553 5550 5546 5542 5537 5532 5525 5519 5518 5510 5502 5495 5485 5478 5466 5455 5440
5553 5554 5556 5557 5559 5560 5561 5560 5560 5559 5558 5557 5557 5556 5556 5554 5552 5551 5549 5546 5543 5539 5537 5534 5529 5524 5520 5514 5505 5498 5497 5489 5482 5475 5468 5455 5443 5426
5538 5541 5542 5545 5547 5548 5548 5548 5548 5547 5546 5545 5543 5542 5542 5541 5539 5537 5535 5532 5529 5527 5523 5519 5516 5512 5507 5501 5495 5486 5477 5473 5467 5462 5456 5448 5438 5424
5524 5527 5529 5530 5532 5533 5535 5535 5534 5534 5532 5531 5530 5529 5528 5526 5524 5522 5520 5518 5515 5512 5509 5506 5502 5499 5495 5490 5483 5477 5468 5456 5448 5441 5436 5426 5419 5412
5509 5511 5513 5515 5516 5518 5520 5520 5520 5518 5518 5517 5516 5515 5513 5511 5509 5507 5505 5503 5501 5499 5496 5493 5489 5486 5482 5478 5472 5465 5459 5452 5443 5427 5413 5406 5397 5385